Tracking 30995 objects as of 7-Jul-2025
HD Live streaming from Space Station
objects crossing your sky now

DELTA 1 DEB

Track DELTA 1 DEB now!
10-day predictions


NORAD ID: 21276
Int'l Code: 1975-052M
Perigee: 1,099.0 km
Apogee: 1,167.3 km
Inclination: 100.0 °
Period: 107.8 minutes
Semi major axis: 7504 km
RCS: 1.9671 m2 (large)
Launch date: June 12, 1975
Source: United States (US)
Launch site: AIR FORCE WESTERN TEST RANGE (AFWTR)

Note: This is SATELLITE DEBRIS
Your satellite tracking list
Your tracking list is empty




NASA's NSSDC Master Catalog

Two Line Element Set (TLE):
1 21276U 75052M   25187.62851926 -.00000015  00000-0  56594-4 0  9999
2 21276 100.0359  88.6076 0045509 214.2661 206.4696 13.35533870665602
Source of the keplerian elements: AFSPC